Погода в Аккургане

Узбекистан     40°52′43″N   69°02′54″E
темп.,
°C
ветер,
м/с
пор.,
м/с
влажн.,
%
обл.,
%
осадки,
мм/ч
давл.,
гПа
погр.,
м
18 августа, чт
чт1823:00+23с48170 0.0 1005119
02:00+20зсз22210 0.0 100513
05:00+16юз22260 0.0 100616
08:00+23ю33180 0.0 1007296
11:00+31з33110 0.0 10061104
14:00+36зсз4370 0.0 10031823
17:00+36зсз4370 0.0 10021834
20:00+26зюз34130 0.0 100226
19 августа, пт
пт1923:00+21св22190 0.0 100320
02:00+19ююв12210 0.0 100313
05:00+15ююв34290 0.0 100548
08:00+21ю45190 0.0 1006301
11:00+31зюз33110 0.0 1005996
14:00+36ссз3370 0.0 10031907
17:00+37с4560 0.0 10012567
20:00+29ссз715140 0.0 1003434
20 августа, сб
сб2023:00+25с714210 0.0 1004390
02:00+19сз35310 0.0 100679
05:00+17сз33350 0.0 100837
08:00+22ссз24260 0.0 1010444
11:00+29ссз44170 0.0 10091873
14:00+32сз65120 0.0 10072366
17:00+32ссз66100 0.0 10052410
20:00+25ссз814190 0.0 1007614
21 августа, вс
вс2123:00+20с612250 0.0 1008299
02:00+15зсз23370 0.0 100826
05:00+12юз33460 0.0 100929
08:00+18ю45330 0.0 1010387
11:00+26юз44180 0.0 10091137
14:00+31зюз33100 0.0 10061783
17:00+32зсз3390 0.0 10052138
20:00+22ссз48170 0.0 1006100
22 августа, пн
пн2223:00+18с45250 0.0 100871
02:00+15сз11320 0.0 100814
05:00+12ююз22370 0.0 101020
08:00+18ююз33260 0.0 1012308
11:00+26з33160 0.0 10121235
14:00+31зсз4490 0.0 10102161
17:00+31ссз5580 0.0 10102248
20:00+21сз33150 0.0 101115